date,time,SUV Intensity [MED/Hr],UV Index,Daily total [MED],Since Last [MED]
28/04/2022,00:07:26,0.000,0.0,0.0,0.0
28/04/2022,00:08:34,-0.001,0.0,0.0,0.0
28/04/2022,00:10:27,0.000,0.0,0.0,0.0
28/04/2022,00:11:34,0.000,0.0,0.0,0.0
28/04/2022,00:12:25,0.000,0.0,0.0,0.0
28/04/2022,00:13:26,-0.001,0.0,0.0,0.0
28/04/2022,00:14:26,0.001,0.0,0.0,0.0
28/04/2022,00:15:26,0.001,0.0,0.0,0.0
28/04/2022,00:16:34,-0.000,0.0,0.0,0.0
28/04/2022,00:18:26,0.000,0.0,0.0,0.0
28/04/2022,00:19:25,0.000,0.0,0.0,0.0
28/04/2022,00:20:25,0.000,0.0,0.0,0.0
28/04/2022,00:21:26,0.001,0.0,0.0,0.0
28/04/2022,00:22:26,0.000,0.0,0.0,0.0
28/04/2022,00:23:26,-0.001,0.0,0.0,0.0
28/04/2022,00:24:26,0.000,0.0,0.0,0.0
28/04/2022,00:25:26,0.000,0.0,0.0,0.0
28/04/2022,00:26:26,0.000,0.0,0.0,0.0
28/04/2022,00:27:25,-0.001,0.0,0.0,0.0
28/04/2022,00:28:26,-0.000,0.0,0.0,0.0
28/04/2022,00:29:34,0.000,0.0,0.0,0.0
28/04/2022,00:30:25,-0.000,0.0,0.0,0.0
28/04/2022,00:31:34,0.001,0.0,0.0,0.0
28/04/2022,00:32:25,0.000,0.0,0.0,0.0
28/04/2022,00:33:26,0.001,0.0,0.0,0.0
28/04/2022,00:34:26,-0.000,0.0,0.0,0.0
28/04/2022,00:35:26,-0.001,0.0,0.0,0.0
28/04/2022,00:36:26,0.001,0.0,0.0,0.0
28/04/2022,00:37:26,0.001,0.0,0.0,0.0
28/04/2022,00:38:26,0.000,0.0,0.0,0.0
28/04/2022,00:39:26,-0.001,0.0,0.0,0.0
28/04/2022,00:40:25,-0.000,0.0,0.0,0.0
28/04/2022,00:41:26,-0.000,0.0,0.0,0.0
28/04/2022,00:42:26,0.001,0.0,0.0,0.0
28/04/2022,00:43:25,-0.001,0.0,0.0,0.0
28/04/2022,00:44:26,-0.000,0.0,0.0,0.0
28/04/2022,00:45:26,-0.000,0.0,0.0,0.0
28/04/2022,00:46:26,-0.000,0.0,0.0,0.0
28/04/2022,00:47:34,0.000,0.0,0.0,0.0
28/04/2022,00:48:26,-0.000,0.0,0.0,0.0
28/04/2022,00:49:25,0.001,0.0,0.0,0.0
28/04/2022,00:50:34,0.000,0.0,0.0,0.0
28/04/2022,00:51:25,0.001,0.0,0.0,0.0
28/04/2022,00:52:26,-0.000,0.0,0.0,0.0
28/04/2022,00:53:26,0.000,0.0,0.0,0.0
28/04/2022,00:54:26,-0.000,0.0,0.0,0.0
28/04/2022,00:55:26,-0.000,0.0,0.0,0.0
28/04/2022,00:56:26,-0.000,0.0,0.0,0.0
28/04/2022,00:57:26,-0.000,0.0,0.0,0.0
28/04/2022,00:58:34,-0.000,0.0,0.0,0.0
28/04/2022,00:59:25,-0.001,0.0,0.0,0.0
28/04/2022,01:00:26,-0.000,0.0,0.0,0.0
28/04/2022,01:01:26,0.000,0.0,0.0,0.0
28/04/2022,01:02:26,-0.000,0.0,0.0,0.0
28/04/2022,01:03:26,-0.000,0.0,0.0,0.0
28/04/2022,01:04:26,-0.001,0.0,0.0,0.0
28/04/2022,01:05:34,0.000,0.0,0.0,0.0
28/04/2022,01:06:25,-0.001,0.0,0.0,0.0
28/04/2022,01:07:26,-0.001,0.0,0.0,0.0
28/04/2022,01:08:26,-0.000,0.0,0.0,0.0
28/04/2022,01:09:26,-0.000,0.0,0.0,0.0
28/04/2022,01:10:26,0.000,0.0,0.0,0.0
28/04/2022,01:11:26,-0.001,0.0,0.0,0.0
28/04/2022,01:12:26,-0.000,0.0,0.0,0.0
28/04/2022,01:13:26,0.000,0.0,0.0,0.0
28/04/2022,01:14:26,-0.000,0.0,0.0,0.0
28/04/2022,01:15:34,-0.000,0.0,0.0,0.0
28/04/2022,01:16:25,-0.001,0.0,0.0,0.0
28/04/2022,01:17:26,-0.000,0.0,0.0,0.0
28/04/2022,01:18:26,-0.001,0.0,0.0,0.0
28/04/2022,01:19:25,-0.000,0.0,0.0,0.0
28/04/2022,01:20:26,-0.000,0.0,0.0,0.0
28/04/2022,01:21:27,-0.001,0.0,0.0,0.0
28/04/2022,01:22:25,-0.001,0.0,0.0,0.0
28/04/2022,01:23:34,-0.001,0.0,0.0,0.0
28/04/2022,01:24:25,-0.001,0.0,0.0,0.0
28/04/2022,01:25:26,0.000,0.0,0.0,0.0
28/04/2022,01:26:27,0.000,0.0,0.0,0.0
28/04/2022,01:27:24,-0.000,0.0,0.0,0.0
28/04/2022,01:28:26,-0.000,0.0,0.0,0.0
28/04/2022,01:29:26,0.000,0.0,0.0,0.0
28/04/2022,01:30:26,-0.001,0.0,0.0,0.0
28/04/2022,01:31:26,-0.000,0.0,0.0,0.0
28/04/2022,01:32:25,-0.001,0.0,0.0,0.0
28/04/2022,01:33:34,-0.001,0.0,0.0,0.0
28/04/2022,01:34:25,-0.001,0.0,0.0,0.0
28/04/2022,01:35:26,-0.001,0.0,0.0,0.0
28/04/2022,01:36:26,-0.001,0.0,0.0,0.0
28/04/2022,01:37:26,-0.001,0.0,0.0,0.0
28/04/2022,01:38:26,-0.001,0.0,0.0,0.0
28/04/2022,01:39:26,-0.001,0.0,0.0,0.0
28/04/2022,01:40:26,-0.001,0.0,0.0,0.0
28/04/2022,01:41:26,-0.000,0.0,0.0,0.0
28/04/2022,01:42:26,-0.000,0.0,0.0,0.0
28/04/2022,01:43:25,-0.001,0.0,0.0,0.0
28/04/2022,01:44:26,-0.000,0.0,0.0,0.0
28/04/2022,01:45:26,-0.001,0.0,0.0,0.0
28/04/2022,01:46:26,-0.001,0.0,0.0,0.0
28/04/2022,01:47:26,-0.000,0.0,0.0,0.0
28/04/2022,01:48:25,-0.001,0.0,0.0,0.0
28/04/2022,01:49:26,-0.001,0.0,0.0,0.0
28/04/2022,01:50:27,0.000,0.0,0.0,0.0
28/04/2022,01:51:26,-0.001,0.0,0.0,0.0
28/04/2022,01:52:34,-0.001,0.0,0.0,0.0
28/04/2022,01:53:25,-0.001,0.0,0.0,0.0
28/04/2022,01:54:26,-0.001,0.0,0.0,0.0
28/04/2022,01:55:26,-0.001,0.0,0.0,0.0
28/04/2022,01:56:27,-0.001,0.0,0.0,0.0
28/04/2022,01:57:26,-0.001,0.0,0.0,0.0
28/04/2022,01:58:26,-0.001,0.0,0.0,0.0
28/04/2022,01:59:26,-0.001,0.0,0.0,0.0
28/04/2022,02:00:26,-0.001,0.0,0.0,0.0
28/04/2022,02:01:26,-0.001,0.0,0.0,0.0
28/04/2022,02:02:26,-0.001,0.0,0.0,0.0
28/04/2022,02:03:25,-0.001,0.0,0.0,0.0
28/04/2022,02:04:26,-0.001,0.0,0.0,0.0
28/04/2022,02:05:26,-0.001,0.0,0.0,0.0
28/04/2022,02:06:26,-0.001,0.0,0.0,0.0
28/04/2022,02:07:26,-0.001,0.0,0.0,0.0
28/04/2022,02:08:26,-0.001,0.0,0.0,0.0
28/04/2022,02:09:27,-0.001,0.0,0.0,0.0
28/04/2022,02:10:35,-0.001,0.0,0.0,0.0
28/04/2022,02:11:26,-0.001,0.0,0.0,0.0
28/04/2022,02:12:26,-0.001,0.0,0.0,0.0
28/04/2022,02:13:26,-0.001,0.0,0.0,0.0
28/04/2022,02:14:26,-0.001,0.0,0.0,0.0
28/04/2022,02:15:26,-0.001,0.0,0.0,0.0
28/04/2022,02:16:26,-0.001,0.0,0.0,0.0
28/04/2022,02:17:26,-0.001,0.0,0.0,0.0
28/04/2022,02:18:26,-0.001,0.0,0.0,0.0
28/04/2022,02:19:26,-0.001,0.0,0.0,0.0
28/04/2022,02:20:34,-0.001,0.0,0.0,0.0
28/04/2022,02:21:25,-0.001,0.0,0.0,0.0
28/04/2022,02:22:26,-0.001,0.0,0.0,0.0
28/04/2022,02:23:26,-0.001,0.0,0.0,0.0
28/04/2022,02:24:26,-0.001,0.0,0.0,0.0
28/04/2022,02:25:26,-0.001,0.0,0.0,0.0
28/04/2022,02:26:26,0.000,0.0,0.0,0.0
28/04/2022,02:27:26,-0.001,0.0,0.0,0.0
28/04/2022,02:28:34,-0.001,0.0,0.0,0.0
28/04/2022,02:29:26,-0.001,0.0,0.0,0.0
28/04/2022,02:30:26,-0.001,0.0,0.0,0.0
28/04/2022,02:31:26,-0.001,0.0,0.0,0.0
28/04/2022,02:32:26,-0.001,0.0,0.0,0.0
28/04/2022,02:33:26,-0.001,0.0,0.0,0.0
28/04/2022,02:34:26,-0.001,0.0,0.0,0.0
28/04/2022,02:35:34,0.000,0.0,0.0,0.0
28/04/2022,02:36:25,-0.001,0.0,0.0,0.0
28/04/2022,02:37:26,-0.001,0.0,0.0,0.0
28/04/2022,02:38:26,-0.001,0.0,0.0,0.0
28/04/2022,02:39:26,-0.001,0.0,0.0,0.0
28/04/2022,02:40:26,-0.001,0.0,0.0,0.0
28/04/2022,02:41:26,-0.001,0.0,0.0,0.0
28/04/2022,02:42:26,-0.001,0.0,0.0,0.0
28/04/2022,02:43:26,-0.001,0.0,0.0,0.0
28/04/2022,02:44:26,-0.001,0.0,0.0,0.0
28/04/2022,02:45:26,-0.001,0.0,0.0,0.0
28/04/2022,02:46:34,-0.001,0.0,0.0,0.0
28/04/2022,02:48:26,-0.001,0.0,0.0,0.0
28/04/2022,02:49:26,-0.001,0.0,0.0,0.0
28/04/2022,02:50:26,-0.001,0.0,0.0,0.0
28/04/2022,02:51:26,-0.001,0.0,0.0,0.0
28/04/2022,02:52:28,-0.001,0.0,0.0,0.0
28/04/2022,02:53:26,-0.001,0.0,0.0,0.0
28/04/2022,02:54:26,0.000,0.0,0.0,0.0
28/04/2022,02:55:26,-0.001,0.0,0.0,0.0
28/04/2022,02:56:35,-0.001,0.0,0.0,0.0
28/04/2022,02:58:26,-0.001,0.0,0.0,0.0
28/04/2022,02:59:26,-0.001,0.0,0.0,0.0
28/04/2022,03:00:26,-0.001,0.0,0.0,0.0
28/04/2022,03:01:26,-0.001,0.0,0.0,0.0
28/04/2022,03:02:26,-0.000,0.0,0.0,0.0
28/04/2022,03:03:35,-0.001,0.0,0.0,0.0
28/04/2022,03:04:34,-0.001,0.0,0.0,0.0
28/04/2022,03:05:26,-0.001,0.0,0.0,0.0
28/04/2022,03:06:26,-0.001,0.0,0.0,0.0
28/04/2022,03:07:26,-0.001,0.0,0.0,0.0
28/04/2022,03:08:26,-0.001,0.0,0.0,0.0
28/04/2022,03:09:26,-0.001,0.0,0.0,0.0
28/04/2022,03:10:26,-0.001,0.0,0.0,0.0
28/04/2022,03:11:34,-0.001,0.0,0.0,0.0
28/04/2022,03:12:26,-0.001,0.0,0.0,0.0
28/04/2022,03:13:27,-0.001,0.0,0.0,0.0
28/04/2022,03:14:34,-0.001,0.0,0.0,0.0
28/04/2022,03:15:26,-0.001,0.0,0.0,0.0
28/04/2022,03:16:26,-0.001,0.0,0.0,0.0
28/04/2022,03:17:27,-0.001,0.0,0.0,0.0
28/04/2022,03:18:26,-0.001,0.0,0.0,0.0
28/04/2022,03:19:25,-0.001,0.0,0.0,0.0
28/04/2022,03:20:26,-0.001,0.0,0.0,0.0
28/04/2022,03:21:26,-0.001,0.0,0.0,0.0
28/04/2022,03:22:35,-0.001,0.0,0.0,0.0
28/04/2022,03:23:26,-0.001,0.0,0.0,0.0
28/04/2022,03:24:26,-0.001,0.0,0.0,0.0
28/04/2022,03:25:26,-0.001,0.0,0.0,0.0
28/04/2022,03:26:26,-0.001,0.0,0.0,0.0
28/04/2022,03:27:26,-0.001,0.0,0.0,0.0
28/04/2022,03:28:26,-0.001,0.0,0.0,0.0
28/04/2022,03:29:27,-0.001,0.0,0.0,0.0
28/04/2022,03:30:26,-0.001,0.0,0.0,0.0
28/04/2022,03:31:26,-0.001,0.0,0.0,0.0
28/04/2022,03:32:34,-0.001,0.0,0.0,0.0
28/04/2022,03:33:33,-0.001,0.0,0.0,0.0
28/04/2022,03:35:26,-0.001,0.0,0.0,0.0
28/04/2022,03:36:26,-0.001,0.0,0.0,0.0
28/04/2022,03:37:28,-0.001,0.0,0.0,0.0
28/04/2022,03:38:26,-0.001,0.0,0.0,0.0
28/04/2022,03:39:26,-0.001,0.0,0.0,0.0
28/04/2022,03:40:35,-0.001,0.0,0.0,0.0
28/04/2022,03:41:26,0.000,0.0,0.0,0.0
28/04/2022,03:42:26,-0.001,0.0,0.0,0.0
28/04/2022,03:43:26,-0.001,0.0,0.0,0.0
28/04/2022,03:44:34,-0.001,0.0,0.0,0.0
28/04/2022,03:45:25,-0.001,0.0,0.0,0.0
28/04/2022,03:46:27,-0.001,0.0,0.0,0.0
28/04/2022,03:47:35,-0.001,0.0,0.0,0.0
28/04/2022,03:48:26,-0.001,0.0,0.0,0.0
28/04/2022,03:49:26,-0.001,0.0,0.0,0.0
28/04/2022,03:50:26,-0.001,0.0,0.0,0.0
28/04/2022,03:51:26,-0.001,0.0,0.0,0.0
28/04/2022,03:52:27,-0.001,0.0,0.0,0.0
28/04/2022,03:53:26,-0.001,0.0,0.0,0.0
28/04/2022,03:54:27,-0.002,0.0,0.0,0.0
28/04/2022,03:55:26,-0.001,0.0,0.0,0.0
28/04/2022,03:56:26,-0.001,0.0,0.0,0.0
28/04/2022,03:57:27,-0.001,0.0,0.0,0.0
28/04/2022,03:58:34,-0.001,0.0,0.0,0.0
28/04/2022,03:59:26,-0.001,0.0,0.0,0.0
28/04/2022,04:00:26,-0.001,0.0,0.0,0.0
28/04/2022,04:01:27,-0.001,0.0,0.0,0.0
28/04/2022,04:02:26,-0.001,0.0,0.0,0.0
28/04/2022,04:03:26,-0.001,0.0,0.0,0.0
28/04/2022,04:04:26,-0.001,0.0,0.0,0.0
28/04/2022,04:05:26,-0.001,0.0,0.0,0.0
28/04/2022,04:06:34,-0.001,0.0,0.0,0.0
28/04/2022,04:07:25,-0.001,0.0,0.0,0.0
28/04/2022,04:08:26,-0.001,0.0,0.0,0.0
28/04/2022,04:09:27,-0.001,0.0,0.0,0.0
28/04/2022,04:10:26,-0.001,0.0,0.0,0.0
28/04/2022,04:11:26,-0.001,0.0,0.0,0.0
28/04/2022,04:12:26,-0.001,0.0,0.0,0.0
28/04/2022,04:13:34,-0.001,0.0,0.0,0.0
28/04/2022,04:14:25,-0.001,0.0,0.0,0.0
28/04/2022,04:15:26,-0.001,0.0,0.0,0.0
28/04/2022,04:16:26,-0.001,0.0,0.0,0.0
28/04/2022,04:17:26,-0.001,0.0,0.0,0.0
28/04/2022,04:18:26,-0.001,0.0,0.0,0.0
28/04/2022,04:19:26,-0.001,0.0,0.0,0.0
28/04/2022,04:20:26,-0.001,0.0,0.0,0.0
28/04/2022,04:21:26,-0.001,0.0,0.0,0.0
28/04/2022,04:22:26,-0.001,0.0,0.0,0.0
28/04/2022,04:23:35,-0.001,0.0,0.0,0.0
28/04/2022,04:24:34,-0.001,0.0,0.0,0.0
28/04/2022,04:25:27,-0.001,0.0,0.0,0.0
28/04/2022,04:26:26,-0.001,0.0,0.0,0.0
28/04/2022,04:27:26,-0.001,0.0,0.0,0.0
28/04/2022,04:28:26,-0.001,0.0,0.0,0.0
28/04/2022,04:29:26,-0.001,0.0,0.0,0.0
28/04/2022,04:30:26,-0.001,0.0,0.0,0.0
28/04/2022,04:31:26,-0.001,0.0,0.0,0.0
28/04/2022,04:32:26,-0.001,0.0,0.0,0.0
28/04/2022,04:33:26,-0.001,0.0,0.0,0.0
28/04/2022,04:34:34,-0.001,0.0,0.0,0.0
28/04/2022,04:35:25,-0.001,0.0,0.0,0.0
28/04/2022,04:36:26,0.000,0.0,0.0,0.0
28/04/2022,04:37:26,-0.001,0.0,0.0,0.0
28/04/2022,04:38:26,-0.001,0.0,0.0,0.0
28/04/2022,04:39:26,-0.001,0.0,0.0,0.0
28/04/2022,04:40:26,-0.000,0.0,0.0,0.0
28/04/2022,04:41:35,0.000,0.0,0.0,0.0
28/04/2022,04:42:26,-0.000,0.0,0.0,0.0
28/04/2022,04:43:26,-0.000,0.0,0.0,0.0
28/04/2022,04:44:26,0.000,0.0,0.0,0.0
28/04/2022,04:45:26,-0.000,0.0,0.0,0.0
28/04/2022,04:46:26,0.001,0.0,0.0,0.0
28/04/2022,04:47:26,-0.001,0.0,0.0,0.0
28/04/2022,04:48:26,0.000,0.0,0.0,0.0
28/04/2022,04:49:34,0.000,0.0,0.0,0.0
28/04/2022,04:50:25,0.000,0.0,0.0,0.0
28/04/2022,04:51:26,0.001,0.0,0.0,0.0
28/04/2022,04:52:26,0.001,0.0,0.0,0.0
28/04/2022,04:53:26,0.001,0.0,0.0,0.0
28/04/2022,04:54:26,0.001,0.0,0.0,0.0
28/04/2022,04:55:26,0.001,0.0,0.0,0.0
28/04/2022,04:56:27,0.001,0.0,0.0,0.0
28/04/2022,04:57:26,0.000,0.0,0.0,0.0
28/04/2022,04:58:27,0.001,0.0,0.0,0.0
28/04/2022,04:59:26,0.002,0.0,0.0,0.0
28/04/2022,05:00:26,0.002,0.0,0.0,0.0
28/04/2022,05:01:26,0.002,0.0,0.0,0.0
28/04/2022,05:02:17,0.003,0.0,0.0,0.0
28/04/2022,05:03:29,0.002,0.0,0.0,0.0
28/04/2022,05:04:26,0.002,0.0,0.0,0.0
28/04/2022,05:05:26,0.003,0.0,0.0,0.0
28/04/2022,05:06:26,0.002,0.0,0.0,0.0
28/04/2022,05:09:37,0.003,0.0,0.0,0.0
28/04/2022,05:10:26,0.004,0.0,0.0,0.0
28/04/2022,05:11:26,0.003,0.0,0.0,0.0
28/04/2022,05:12:26,0.003,0.0,0.0,0.0
28/04/2022,05:13:26,0.004,0.0,0.0,0.0
28/04/2022,05:14:26,0.003,0.0,0.0,0.0
28/04/2022,05:15:28,0.003,0.0,0.0,0.0
28/04/2022,05:16:26,0.004,0.0,0.0,0.0
28/04/2022,05:17:26,0.005,0.0,0.0,0.0
28/04/2022,05:18:35,0.006,0.0,0.0,0.0
28/04/2022,05:20:27,0.006,0.0,0.0,0.0
28/04/2022,05:21:27,0.006,0.0,0.0,0.0
28/04/2022,05:22:27,0.006,0.0,0.0,0.0
28/04/2022,05:23:28,0.007,0.0,0.0,0.0
28/04/2022,05:24:27,0.007,0.0,0.0,0.0
28/04/2022,05:25:35,0.007,0.0,0.0,0.0
28/04/2022,05:27:27,0.007,0.0,0.001,0.001
28/04/2022,05:28:26,0.008,0.0,0.001,0.0
28/04/2022,05:29:27,0.008,0.0,0.001,0.0
28/04/2022,05:30:26,0.009,0.0,0.001,0.0
28/04/2022,05:31:26,0.009,0.0,0.001,0.0
28/04/2022,05:32:26,0.010,0.0,0.001,0.0
28/04/2022,05:33:35,0.011,0.0,0.002,0.001
28/04/2022,05:34:26,0.009,0.0,0.002,0.0
28/04/2022,05:35:26,0.011,0.0,0.002,0.0
28/04/2022,05:36:27,0.012,0.0,0.002,0.0
28/04/2022,05:37:26,0.012,0.0,0.002,0.0
28/04/2022,05:38:26,0.011,0.0,0.002,0.0
28/04/2022,05:39:26,0.011,0.0,0.003,0.001
28/04/2022,05:40:26,0.013,0.0,0.003,0.0
28/04/2022,05:41:26,0.013,0.0,0.003,0.0
28/04/2022,05:42:26,0.015,0.0,0.003,0.0
28/04/2022,05:43:26,0.015,0.0,0.003,0.0
28/04/2022,05:44:26,0.015,0.0,0.004,0.001
28/04/2022,05:45:27,0.015,0.0,0.004,0.0
28/04/2022,05:46:26,0.016,0.0,0.004,0.0
28/04/2022,05:47:26,0.017,0.0,0.004,0.0
28/04/2022,05:48:27,0.018,0.0,0.005,0.001
28/04/2022,05:49:26,0.018,0.0,0.005,0.0
28/04/2022,05:50:26,0.019,0.0,0.005,0.0
28/04/2022,05:51:35,0.020,0.0,0.006,0.001
28/04/2022,05:52:29,0.020,0.0,0.006,0.0
28/04/2022,05:53:26,0.020,0.0,0.006,0.0
28/04/2022,05:54:28,0.022,0.0,0.007,0.001
28/04/2022,05:55:27,0.021,0.0,0.007,0.0
28/04/2022,05:56:26,0.022,0.0,0.007,0.0
28/04/2022,05:57:26,0.023,0.0,0.008,0.001
28/04/2022,05:58:26,0.022,0.0,0.008,0.0
28/04/2022,05:59:27,0.023,0.0,0.009,0.001
28/04/2022,06:00:27,0.023,0.0,0.009,0.0
28/04/2022,06:01:35,0.023,0.0,0.009,0.0
28/04/2022,06:02:25,0.024,0.0,0.01,0.001
28/04/2022,06:03:26,0.025,0.0,0.01,0.0
28/04/2022,06:04:27,0.025,0.0,0.011,0.001
28/04/2022,06:05:27,0.025,0.0,0.011,0.0
28/04/2022,06:06:26,0.025,0.0,0.011,0.0
28/04/2022,06:07:26,0.024,0.0,0.012,0.001
28/04/2022,06:08:26,0.025,0.0,0.012,0.0
28/04/2022,06:09:26,0.026,0.0,0.013,0.001
28/04/2022,06:10:27,0.027,0.0,0.013,0.0
28/04/2022,06:11:27,0.028,0.0,0.014,0.001
28/04/2022,06:12:26,0.029,0.0,0.014,0.0
28/04/2022,06:13:26,0.032,0.0,0.014,0.0
28/04/2022,06:14:27,0.033,0.0,0.015,0.001
28/04/2022,06:15:26,0.035,0.0,0.016,0.001
28/04/2022,06:16:35,0.037,0.0,0.016,0.0
28/04/2022,06:17:26,0.038,0.0,0.017,0.001
28/04/2022,06:18:27,0.038,0.0,0.017,0.0
28/04/2022,06:19:35,0.039,0.0,0.018,0.001
28/04/2022,06:20:26,0.038,0.0,0.019,0.001
28/04/2022,06:21:27,0.038,0.0,0.019,0.0
28/04/2022,06:22:27,0.037,0.0,0.02,0.001
28/04/2022,06:23:26,0.038,0.0,0.021,0.001
28/04/2022,06:24:26,0.039,0.0,0.021,0.0
28/04/2022,06:25:27,0.041,0.0,0.022,0.001
28/04/2022,06:26:26,0.044,0.0,0.023,0.001
28/04/2022,06:27:35,0.047,0.0,0.024,0.001
28/04/2022,06:29:27,0.049,0.0,0.025,0.001
28/04/2022,06:30:26,0.050,0.0,0.026,0.001
28/04/2022,06:31:26,0.051,0.0,0.027,0.001
28/04/2022,06:32:27,0.053,0.0,0.027,0.0
28/04/2022,06:33:27,0.053,0.0,0.028,0.001
28/04/2022,06:34:35,0.053,0.0,0.029,0.001
28/04/2022,06:35:27,0.054,0.0,0.03,0.001
28/04/2022,06:36:26,0.055,0.0,0.031,0.001
28/04/2022,06:37:27,0.057,0.0,0.032,0.001
28/04/2022,06:38:26,0.059,0.0,0.033,0.001
28/04/2022,06:39:26,0.060,0.0,0.034,0.001
28/04/2022,06:40:20,0.062,0.0,0.035,0.001
28/04/2022,06:41:27,0.064,0.0,0.036,0.001
28/04/2022,06:42:35,0.065,0.0,0.037,0.001
28/04/2022,06:44:27,0.067,0.0,0.039,0.002
28/04/2022,06:45:26,0.066,0.0,0.04,0.001
28/04/2022,06:46:26,0.068,0.0,0.042,0.002
28/04/2022,06:47:27,0.068,0.0,0.043,0.001
28/04/2022,06:48:26,0.069,0.0,0.044,0.001
28/04/2022,06:49:26,0.070,0.0,0.045,0.001
28/04/2022,06:50:27,0.072,0.0,0.046,0.001
28/04/2022,06:51:26,0.073,0.0,0.047,0.001
28/04/2022,06:52:51,0.077,0.0,0.049,0.002
28/04/2022,06:54:27,0.078,0.0,0.051,0.002
28/04/2022,06:55:34,0.080,0.0,0.053,0.002
28/04/2022,06:56:24,0.082,0.0,0.054,0.001
28/04/2022,06:57:27,0.084,0.0,0.055,0.001
28/04/2022,06:58:26,0.084,0.0,0.057,0.002
28/04/2022,06:59:26,0.084,0.0,0.058,0.001
28/04/2022,07:00:27,0.084,0.0,0.059,0.001
28/04/2022,07:01:26,0.084,0.0,0.061,0.002
28/04/2022,07:02:26,0.085,0.0,0.062,0.001
28/04/2022,07:03:35,0.089,0.0,0.064,0.002
28/04/2022,07:04:27,0.091,0.0,0.065,0.001
28/04/2022,07:05:28,0.093,0.0,0.067,0.002
28/04/2022,07:06:26,0.095,0.0,0.068,0.001
28/04/2022,07:07:27,0.096,0.0,0.07,0.002
28/04/2022,07:08:27,0.098,0.0,0.071,0.001
28/04/2022,07:09:26,0.098,0.0,0.073,0.002
28/04/2022,07:10:27,0.101,0.0,0.075,0.002
28/04/2022,07:11:27,0.104,0.0,0.076,0.001
28/04/2022,07:12:27,0.109,0.0,0.078,0.002
28/04/2022,07:13:27,0.113,0.0,0.08,0.002
28/04/2022,07:14:26,0.117,0.0,0.082,0.002
28/04/2022,07:15:26,0.118,0.0,0.084,0.002
28/04/2022,07:16:26,0.117,0.0,0.086,0.002
28/04/2022,07:17:26,0.115,0.0,0.088,0.002
28/04/2022,07:18:34,0.110,0.0,0.09,0.002
28/04/2022,07:19:26,0.107,0.0,0.092,0.002
28/04/2022,07:20:26,0.109,0.0,0.093,0.001
28/04/2022,07:21:27,0.113,0.0,0.095,0.002
28/04/2022,07:22:26,0.119,0.0,0.097,0.002
28/04/2022,07:23:26,0.127,0.0,0.099,0.002
28/04/2022,07:24:26,0.134,0.0,0.101,0.002
28/04/2022,07:25:26,0.142,0.0,0.104,0.003
28/04/2022,07:26:27,0.151,0.0,0.106,0.002
28/04/2022,07:27:27,0.157,0.0,0.109,0.003
28/04/2022,07:28:26,0.164,0.0,0.111,0.002
28/04/2022,07:29:27,0.164,0.0,0.114,0.003
28/04/2022,07:30:27,0.166,0.0,0.117,0.003
28/04/2022,07:31:26,0.171,0.0,0.12,0.003
28/04/2022,07:32:27,0.176,0.0,0.123,0.003
28/04/2022,07:33:27,0.184,0.0,0.126,0.003
28/04/2022,07:34:26,0.188,0.0,0.129,0.003
28/04/2022,07:35:26,0.190,0.0,0.132,0.003
28/04/2022,07:36:35,0.190,0.0,0.135,0.003
28/04/2022,07:37:26,0.190,0.0,0.138,0.003
28/04/2022,07:38:26,0.191,0.0,0.141,0.003
28/04/2022,07:39:26,0.193,0.0,0.145,0.004
28/04/2022,07:40:27,0.194,0.0,0.148,0.003
28/04/2022,07:41:27,0.198,0.0,0.151,0.003
28/04/2022,07:42:26,0.203,0.0,0.154,0.003
28/04/2022,07:43:35,0.209,0.0,0.158,0.004
28/04/2022,07:44:27,0.213,0.0,0.161,0.003
28/04/2022,07:45:26,0.215,0.0,0.165,0.004
28/04/2022,07:46:26,0.217,1.0,0.169,0.004
28/04/2022,07:47:26,0.219,1.0,0.172,0.003
28/04/2022,07:48:27,0.217,0.0,0.176,0.004
28/04/2022,07:49:27,0.218,1.0,0.179,0.003
28/04/2022,07:50:27,0.220,1.0,0.183,0.004
28/04/2022,07:51:27,0.224,1.0,0.187,0.004
28/04/2022,07:52:26,0.233,1.0,0.191,0.004
28/04/2022,07:53:35,0.239,1.0,0.195,0.004
28/04/2022,07:54:35,0.250,1.0,0.199,0.004
28/04/2022,07:55:27,0.254,1.0,0.203,0.004
28/04/2022,07:56:26,0.259,1.0,0.207,0.004
28/04/2022,07:57:26,0.265,1.0,0.211,0.004
28/04/2022,07:58:27,0.264,1.0,0.216,0.005
28/04/2022,07:59:26,0.263,1.0,0.22,0.004
28/04/2022,08:00:27,0.264,1.0,0.225,0.005
28/04/2022,08:01:35,0.263,1.0,0.23,0.005
28/04/2022,08:02:26,0.258,1.0,0.233,0.003
28/04/2022,08:03:27,0.258,1.0,0.238,0.005
28/04/2022,08:04:35,0.256,1.0,0.242,0.004
28/04/2022,08:05:26,0.258,1.0,0.246,0.004
28/04/2022,08:06:26,0.260,1.0,0.25,0.004
28/04/2022,08:07:27,0.260,1.0,0.255,0.005
28/04/2022,08:08:26,0.254,1.0,0.259,0.004
28/04/2022,08:09:27,0.242,1.0,0.263,0.004
28/04/2022,08:10:27,0.233,1.0,0.267,0.004
28/04/2022,08:11:27,0.221,1.0,0.271,0.004
28/04/2022,08:12:35,0.215,0.0,0.275,0.004
28/04/2022,08:13:26,0.228,1.0,0.278,0.003
28/04/2022,08:14:27,0.251,1.0,0.282,0.004
28/04/2022,08:15:27,0.260,1.0,0.287,0.005
28/04/2022,08:16:27,0.258,1.0,0.291,0.004
28/04/2022,08:17:27,0.256,1.0,0.295,0.004
28/04/2022,08:18:27,0.266,1.0,0.299,0.004
28/04/2022,08:19:27,0.280,1.0,0.304,0.005
28/04/2022,08:20:26,0.293,1.0,0.309,0.005
28/04/2022,08:21:26,0.307,1.0,0.314,0.005
28/04/2022,08:22:35,0.324,1.0,0.32,0.006
28/04/2022,08:24:36,0.358,1.0,0.331,0.011
28/04/2022,08:26:28,0.365,1.0,0.343,0.012
28/04/2022,08:27:26,0.346,1.0,0.349,0.006
28/04/2022,08:28:27,0.326,1.0,0.354,0.005
28/04/2022,08:29:26,0.313,1.0,0.36,0.006
28/04/2022,08:30:35,0.291,1.0,0.365,0.005
28/04/2022,08:31:26,0.267,1.0,0.369,0.004
28/04/2022,08:32:29,0.252,1.0,0.374,0.005
28/04/2022,08:33:36,0.238,1.0,0.378,0.004
28/04/2022,08:35:27,0.219,1.0,0.385,0.007
28/04/2022,08:36:26,0.211,0.0,0.389,0.004
28/04/2022,08:37:27,0.205,0.0,0.392,0.003
28/04/2022,08:38:26,0.203,0.0,0.396,0.004
28/04/2022,08:39:26,0.203,0.0,0.399,0.003
28/04/2022,08:40:26,0.212,0.0,0.403,0.004
28/04/2022,08:41:35,0.235,1.0,0.407,0.004
28/04/2022,08:43:27,0.281,1.0,0.415,0.008
28/04/2022,08:44:26,0.296,1.0,0.42,0.005
28/04/2022,08:45:35,0.300,1.0,0.425,0.005
28/04/2022,08:46:27,0.300,1.0,0.43,0.005
28/04/2022,08:47:27,0.297,1.0,0.435,0.005
28/04/2022,08:48:26,0.281,1.0,0.439,0.004
28/04/2022,08:49:26,0.265,1.0,0.444,0.005
28/04/2022,08:50:43,0.252,1.0,0.449,0.005
28/04/2022,08:52:28,0.295,1.0,0.457,0.008
28/04/2022,08:53:26,0.296,1.0,0.462,0.005
28/04/2022,08:54:27,0.306,1.0,0.467,0.005
28/04/2022,08:55:28,0.321,1.0,0.472,0.005
28/04/2022,08:56:26,0.339,1.0,0.478,0.006
28/04/2022,08:57:27,0.363,1.0,0.483,0.005
28/04/2022,08:58:27,0.376,1.0,0.49,0.007
28/04/2022,08:59:35,0.390,1.0,0.497,0.007
28/04/2022,09:01:27,0.378,1.0,0.509,0.012
28/04/2022,09:02:27,0.369,1.0,0.515,0.006
28/04/2022,09:03:27,0.378,1.0,0.521,0.006
28/04/2022,09:04:26,0.393,1.0,0.528,0.007
28/04/2022,09:05:27,0.406,1.0,0.534,0.006
28/04/2022,09:06:35,0.425,1.0,0.542,0.008
28/04/2022,09:08:27,0.453,1.0,0.556,0.014
28/04/2022,09:09:35,0.469,1.0,0.565,0.009
28/04/2022,09:10:26,0.482,1.0,0.572,0.007
28/04/2022,09:11:27,0.495,1.0,0.58,0.008
28/04/2022,09:12:27,0.509,1.0,0.588,0.008
28/04/2022,09:13:27,0.526,1.0,0.597,0.009
28/04/2022,09:14:26,0.546,1.0,0.606,0.009
28/04/2022,09:15:26,0.568,1.0,0.615,0.009
28/04/2022,09:16:35,0.593,1.0,0.626,0.011
28/04/2022,09:17:27,0.627,1.0,0.635,0.009
28/04/2022,09:18:27,0.673,2.0,0.645,0.01
28/04/2022,09:19:27,0.656,2.0,0.657,0.012
28/04/2022,09:20:27,0.646,1.0,0.668,0.011
28/04/2022,09:21:28,0.676,2.0,0.679,0.011
28/04/2022,09:22:27,0.691,2.0,0.691,0.012
28/04/2022,09:23:27,0.727,2.0,0.702,0.011
28/04/2022,09:24:35,0.650,1.0,0.715,0.013
28/04/2022,09:25:26,0.653,2.0,0.724,0.009
28/04/2022,09:26:28,0.608,1.0,0.735,0.011
28/04/2022,09:27:26,0.605,1.0,0.745,0.01
28/04/2022,09:28:27,0.581,1.0,0.755,0.01
28/04/2022,09:29:27,0.552,1.0,0.764,0.009
28/04/2022,09:30:26,0.515,1.0,0.773,0.009
28/04/2022,09:31:27,0.498,1.0,0.782,0.009
28/04/2022,09:32:28,0.537,1.0,0.791,0.009
28/04/2022,09:33:27,0.569,1.0,0.799,0.008
28/04/2022,09:34:26,0.591,1.0,0.809,0.01
28/04/2022,09:35:27,0.583,1.0,0.819,0.01
28/04/2022,09:36:40,0.580,1.0,0.831,0.012
28/04/2022,09:38:28,0.560,1.0,0.848,0.017
28/04/2022,09:39:26,0.544,1.0,0.857,0.009
28/04/2022,09:40:27,0.526,1.0,0.866,0.009
28/04/2022,09:41:27,0.507,1.0,0.874,0.008
28/04/2022,09:42:27,0.490,1.0,0.883,0.009
28/04/2022,09:43:29,0.480,1.0,0.891,0.008
28/04/2022,09:44:27,0.481,1.0,0.899,0.008
28/04/2022,09:45:42,0.491,1.0,0.909,0.01
28/04/2022,09:47:27,0.522,1.0,0.924,0.015
28/04/2022,09:48:26,0.555,1.0,0.932,0.008
28/04/2022,09:49:14,0.581,1.0,0.94,0.008
28/04/2022,09:50:28,0.598,1.0,0.952,0.012
28/04/2022,09:51:26,0.589,1.0,0.962,0.01
28/04/2022,09:52:27,0.573,1.0,0.972,0.01
28/04/2022,09:53:29,0.573,1.0,0.981,0.009
28/04/2022,09:54:27,0.577,1.0,0.991,0.01
28/04/2022,09:55:27,0.574,1.0,1.0,0.009
28/04/2022,09:56:34,0.577,1.0,1.011,0.011
28/04/2022,09:58:27,0.587,1.0,1.029,0.018
28/04/2022,09:59:35,0.574,1.0,1.04,0.011
28/04/2022,10:01:27,0.510,1.0,1.057,0.017
28/04/2022,10:02:26,0.491,1.0,1.065,0.008
28/04/2022,10:03:26,0.487,1.0,1.073,0.008
28/04/2022,10:04:27,0.489,1.0,1.082,0.009
28/04/2022,10:05:27,0.477,1.0,1.09,0.008
28/04/2022,10:06:27,0.471,1.0,1.098,0.008
28/04/2022,10:07:27,0.464,1.0,1.105,0.007
28/04/2022,10:08:27,0.451,1.0,1.113,0.008
28/04/2022,10:09:27,0.431,1.0,1.121,0.008
28/04/2022,10:10:27,0.407,1.0,1.127,0.006
28/04/2022,10:11:27,0.382,1.0,1.134,0.007
28/04/2022,10:12:27,0.363,1.0,1.14,0.006
28/04/2022,10:13:27,0.353,1.0,1.146,0.006
28/04/2022,10:14:35,0.348,1.0,1.153,0.007
28/04/2022,10:16:27,0.333,1.0,1.164,0.011
28/04/2022,10:17:35,0.319,1.0,1.17,0.006
28/04/2022,10:19:27,0.289,1.0,1.179,0.009
28/04/2022,10:20:27,0.272,1.0,1.184,0.005
28/04/2022,10:21:27,0.261,1.0,1.188,0.004
28/04/2022,10:22:26,0.261,1.0,1.192,0.004
28/04/2022,10:23:27,0.264,1.0,1.197,0.005
28/04/2022,10:24:35,0.269,1.0,1.202,0.005
28/04/2022,10:26:36,0.283,1.0,1.211,0.009
28/04/2022,10:28:27,0.305,1.0,1.22,0.009
28/04/2022,10:29:27,0.319,1.0,1.225,0.005